Rechercher aéroport 
image banner adimage banner adimage banner ad
image banner ad

36CL - Tri-City Hospital

Situé à Oceanside, United States

ICAO - 36CL, IATA -

Données fournies par Airmate  

Information générale

Coordonnées: N33°11'7" W117°17'28"
Élévation : 260 feet MSL.
Variation magnétique : 13° East
Voir autres Aéroports à California

Données opérationnelles

Special qualification required
Heure actuelle UTC:
Heure actuelle locale:
Météo à : KCRQ - Mc Clellan-Palomar ( 6 km )
METAR: KCRQ 291953Z VRB05KT 10SM SCT008 22/17 A2991 RMK AO2 SLP124 T02220167
TAF: KCRQ 291733Z 2918/3018 27009KT P6SM SKC FM300100 26005KT P6SM FEW200 FM300600 VRB04KT 4SM BR BKN006 FM301600 VRB04KT P6SM SCT008 SCT150
Voir NOTAMs / SUP AIP / TFR affectant cet aéroport [VIEW]
Fréquences de communication: [VIEW]

Pistes:

Coordonnées de l'aéroport

Adresse: Oceanside United States

Vue satellite de 36CL